Find Flock 4g-4

NORAD ID: 62659 Int'l Des: 2025-009 Owner: PLAN Country: US Constellation: planet operational
LEOCIRCULARRETROGRADESSO

現在のビュー

3D地球を読み込み中...

Flock 4g-4について

説明を読み込み中...

次回通過

Passes for default location (London). Set your location on the main map for personalized predictions.

高度履歴

Loading altitude history...

軌道要素

1 62659U 25009BC 26151.21713378 .00055689 00000-0 19652-2 0 9999
2 62659 97.3959 232.6143 0002870 38.3811 321.7632 15.29037300133915
Epoch: May 31, 2026 • Age: 8 hours

現在のステータス

高度 489.3 km
速度 7.63 km/s
衛星直下点 71.38°N, 120.66°E
打ち上げ日 Jan 14, 2025
運用期間 1.3 years
タイプ earth observation

技術仕様

分類 Payload
質量 5.70 kg
乾燥質量 5.70 kg
総質量 5.70 kg
長さ 0.30 m
直径 0.10 m
スパン 0.30 m
形状 Box+2 pan
製造者 PLAN
バスタイプ Cubesat 3U
フェーズステータス In Orbit
所有者/国 PLAN/US

Most Searched